Simultaneous Nadir Overpasses (SNOs) Predictions

Prediction of SNOs over PacNW region [( 10.00, 139.50) to ( 22.70, 165.60)] between AQUA and NPP Satellites:

Table of predicted SNOs over PacNW region for the next 30.0 days since TLE Epoch: 4/29/2023
Index Date (AQUA) Time (AQUA) AQUA Lat,Lon Date (NPP) Time (NPP) NPP Lat,Lon Distance(km) Time Diff (sec)
1 04/30/2023 03:57:09 22.69, 144.15 04/30/2023 03:54:35 21.80, 139.72 466.71 154
2 05/10/2023 14:57:40 13.42, 164.58 05/10/2023 14:56:26 14.34, 159.95 510.61 74
3 05/10/2023 16:33:57 22.62, 141.99 05/10/2023 16:35:15 23.77, 136.86 540.09 78
4 05/23/2023 15:51:47 20.46, 152.30 05/23/2023 15:51:10 21.41, 147.42 518.52 37
5 05/26/2023 04:10:41 22.69, 141.03 05/26/2023 04:07:11 23.88, 136.12 519.20 210
